Regional Weather Roundup
Issued by NWS

Home | Current Version | Previous Version | Graphics & Text | Print | Product List | Glossary On
Versions: 1 2 3 4 5 6 7 8 9 10 11 12 13 14 15 16 17 18 19 20 21 22 23 24 25 26 27 28 29 30 31 32 33 34 35 36 37 38 39 40 41 42 43 44 45 46 47 48 49 50
412
ASUS45 KTFX 312310
RWRMT
MONTANA REGIONAL WEATHER ROUNDUP
NATIONAL WEATHER SERVICE GREAT FALLS MT
500 PM MDT TUE MAY 31 2016

NOTE: "FAIR" INDICATES FEW OR NO CLOUDS BELOW 12000 FEET WITH NO
SIGNIFICANT WEATHER AND/OR OBSTRUCTIONS TO VISIBILITY.

MTZ001>007-043-010000-
WEST OF THE DIVIDE

CITY           SKY/WX    TMP DP  RH WIND       PRES   REMARKS
KALISPELL      PTSUNNY   69  35  28 VRB5      30.10F
MISSOULA       SUNNY     71  32  23 NW3       30.10F
BUTTE          SUNNY     63  28  26 VRB3      30.16F
MULLAN PASS    SUNNY     60  27  28 VRB6      30.18F
ANACONDA         N/A     61  30  31 NE8       30.15F
DEER LODGE       N/A     61  28  29 N5        30.17F
EUREKA           N/A     72  34  25 SW3       30.10F
HAMILTON         N/A     70  30  23 N6        30.08F
LIBBY            N/A     72  34  25 N9        30.08F
$$

MTZ008-052>055-010000-
SOUTHWEST MONTANA

CITY           SKY/WX    TMP DP  RH WIND       PRES   REMARKS
BOZEMAN        SUNNY     62  31  31 VRB3      30.17F
DILLON         SUNNY     63  30  28 NE12      30.14F
W YELLOWSTONE  MOSUNNY   57  25  28 W9        30.18S
ENNIS          SUNNY     61  32  33 N13G20    30.22F
$$

MTZ009-010-012-014-046-048-049-054-010000-
EAST SLOPES AND CENTRAL MONTANA

CITY           SKY/WX    TMP DP  RH WIND       PRES   REMARKS
CUT BANK       SUNNY     62  32  32 N12G17    30.15F
GREAT FALLS    SUNNY     64  33  31 NW7       30.16F
MALMSTROM AFB  MOSUNNY   62  35  36 NW10      30.16F
HELENA         CLOUDY    65  32  29 N7        30.16F
CHOTEAU          N/A     59  34  38 NE6       30.18F
$$

MTZ011-013-016-021-045-047-050-051-010000-
NORTH CENTRAL MONTANA

CITY           SKY/WX    TMP DP  RH WIND       PRES   REMARKS
HAVRE          CLOUDY    61  45  55 NW16      30.13S
LEWISTOWN      PTSUNNY   56  42  59 NW10G17   30.17F
N BAR RANCH      N/A     55  39  54 NW16G24   30.17S
CHINOOK          N/A     57  48  72 NW14G21   30.11F
$$

MTZ017>020-022>027-061-062-010000-
NORTHEAST MONTANA

CITY           SKY/WX    TMP DP  RH WIND       PRES   REMARKS
GLASGOW        PTSUNNY   62  47  57 NW20      30.00F
JORDAN           N/A     61  47  59 NW29G36   30.05F
SIDNEY         CLOUDY    57  49  74 N20       29.92R
WOLF POINT     MOSUNNY   65  49  56 N21G32    29.96R
PLENTYWOOD       N/A     55  50  82 N20       29.91S
POPLAR           N/A     61  46  59 NW22G32   29.95R
$$

MTZ028>42-056>058-010000-
SOUTHCENTRAL AND SOUTHEAST MONTANA

CITY           SKY/WX    TMP DP  RH WIND       PRES   REMARKS
BAKER          CLOUDY    54  32  43 NW21G29   29.98S
BILLINGS       MOSUNNY   62  37  39 N8        30.13F
LIVINGSTON     SUNNY     60  32  34 W12       30.16F
MILES CITY     LGT RAIN  59  47  64 NW24G36   30.03R
FORSYTH          N/A     61  45  55 W18G25    30.07R
$$

REGIONAL REPORTS...DAKOTAS

CITY           SKY/WX    TMP DP  RH WIND       PRES   REMARKS
WILLISTON      LGT RAIN  54  49  83 NW21G26   29.89R
MINOT          CLOUDY    60  52  74 NW25G33   29.68R
DICKINSON      LGT RAIN  49  46  90 NW23G38   29.85R
BEACH          CLOUDY    52  52 100 NW23G31   29.95S
CROSBY         RAIN      50  50 100 N24G31    29.89R
WATFORD CITY   RAIN      50  50 100 NW22      29.87R
BISMARCK       MOSUNNY   62  51  67 NW10      29.67R
GRAND FORKS    MOSUNNY   67  49  52 S12       29.66F
FARGO          SUNNY     71  45  39 S20G28    29.68F
BUFFALO SD       N/A     55  48  77 NW33G43   29.90S
RAPID CITY     CLOUDY    61  41  47 NW24G32   30.01R
$$

REGIONAL REPORTS...WYOMING/IDAHO/WASHINGTON

CITY           SKY/WX    TMP DP  RH WIND       PRES   REMARKS
GILLETTE       PTSUNNY   57  40  52 NW25G31   30.10S
SHERIDAN       MOSUNNY   61  41  47 NW21G31   30.13F
BUFFALO WY     CLOUDY    55  38  52 N26G38    30.13F
CODY           SUNNY     61  36  39 NE9       30.13S
YELLOWSTONE LA   N/A     53  25  33 VRB3      30.23F
IDAHO FALLS    MOSUNNY   69  29  22 NE9       30.11F
SALMON         SUNNY     72  30  21 CALM      30.03F
BOISE          SUNNY     79  19  10 VRB6      30.03F
SPOKANE        MOSUNNY   75  32  20 VRB3      30.08F
$$

REGIONAL REPORTS...ALBERTA

CITY           SKY/WX    TMP DP  RH WIND       PRES   REMARKS
EDMONTON       PTSUNNY   64  41  42 SE8       30.08F
CALGARY        MOSUNNY   63  34  34 S9        30.10F
LETHBRIDGE     MOSUNNY   63  34  34 VRB6      30.13F
MEDICINE HAT   PTSUNNY   59  48  67 W6        30.12S
WATERTON GATE    N/A     61  37  41 E9          N/A
CARDSTON         N/A     64  34  32 SE5         N/A
MILK RIVER       N/A     63  39  42 N9          N/A
ONEFOUR          N/A     57  45  62 NW15        N/A
$$

REGIONAL REPORTS...SASKATCHEWAN

CITY           SKY/WX    TMP DP  RH WIND       PRES   REMARKS
SWIFT CURRENT  LGT RAIN  55  48  76 NW16G22   30.03S
REGINA         CLOUDY    55  50  82 N14       29.96S
SASKATOON      MOSUNNY   63  43  48 NE15G22   30.03F
CYPRESS HILLS    N/A     50  45  81 NW9         N/A
VAL MARIE        N/A     52  48  87 NW15        N/A
ROCKGLEN         N/A     55  45  67 N22G29      N/A
ASSINIBOIA       N/A     64  39  39 W3          N/A
$$




USA.gov is the U.S. government's official web portal to all federal, state and local government web resources and services.